Location: Emporia
(38.4040°N, 96.1810°W)
Time: 15:46:19
(UTC-05:00)

ISS - Visible Passes

Search period start: 31 October 2014 00:00
Search period end: 09 November 2014 23:00
Orbit: 412 x 417 km, 51.6° (Epoch: 31 October)

Date Brightness Start Highest point End Pass type
(mag) Time Alt. Az. Time Alt. Az. Time Alt. Az.
07 Nov -0.4 06:05:53 10° S 06:08:24 20° SE 06:10:55 10° E visible
08 Nov 0.1 05:18:14 10° SE 05:19:08 11° SE 05:20:03 10° ESE visible
09 Nov -2.8 06:02:38 10° SW 06:05:54 61° SE 06:09:10 10° ENE visible
